| time (UTC) | temp C | wind direction | speed KPH | gust KPH | rain 1hr cm | rain 24hr cm | rain mn cm | humidity % | barometer mb |
| 20260504081915 | 17 | 198 | 3.2 | 3.2 | 0.00 | 0.00 | 0.00 | 81 | 1018.4 |
| 20260504081412 | 16 | 167 | 6.4 | 9.7 | 0.00 | 0.00 | 0.00 | 81 | 1018.5 |
| 20260504080908 | 17 | 169 | 0.0 | 1.6 | 0.00 | 0.00 | 0.00 | 81 | 1018.6 |
| 20260504080405 | 17 | 216 | 3.2 | 3.2 | 0.00 | 0.00 | 0.00 | 80 | 1018.7 |
| 20260504070333 | 17 | 210 | 1.6 | 3.2 | 0.00 | 0.00 | 0.00 | 77 | 1019.3 |
| 20260504050720 | 18 | 212 | 6.4 | 8.0 | 0.00 | 0.00 | 0.00 | 67 | 1020.5 |
| 20260504050212 | 18 | 205 | 1.6 | 3.2 | 0.00 | 0.00 | 0.00 | 67 | 1020.4 |
| 20260504045710 | 18 | 203 | 1.6 | 3.2 | 0.00 | 0.00 | 0.00 | 67 | 1020.5 |
| 20260504045209 | 18 | 195 | 3.2 | 14.5 | 0.00 | 0.00 | 0.00 | 66 | 1020.5 |
| 20260504044708 | 18 | 217 | 8.0 | 9.7 | 0.00 | 0.00 | 0.00 | 65 | 1020.5 |
| 20260504044205 | 19 | 169 | 8.0 | 11.3 | 0.00 | 0.00 | 0.00 | 64 | 1020.7 |
| 20260504043701 | 18 | 177 | 4.8 | 8.0 | 0.00 | 0.00 | 0.00 | 63 | 1020.5 |
| 20260504043158 | 18 | 202 | 6.4 | 11.3 | 0.00 | 0.00 | 0.00 | 62 | 1020.6 |
| 20260504042656 | 19 | 216 | 1.6 | 1.6 | 0.00 | 0.00 | 0.00 | 62 | 1020.7 |
| 20260504042152 | 19 | 206 | 4.8 | 4.8 | 0.00 | 0.00 | 0.00 | 61 | 1020.6 |
| 20260504041648 | 19 | 201 | 3.2 | 4.8 | 0.00 | 0.00 | 0.00 | 60 | 1020.6 |
| 20260504041144 | 20 | 182 | 3.2 | 3.2 | 0.00 | 0.00 | 0.00 | 60 | 1020.6 |
| 20260504040642 | 20 | 153 | 6.4 | 8.0 | 0.00 | 0.00 | 0.00 | 59 | 1020.7 |
| 20260504040138 | 20 | 211 | 0.0 | 0.0 | 0.00 | 0.00 | 0.00 | 59 | 1020.8 |
| 20260504035635 | 20 | 186 | 6.4 | 8.0 | 0.00 | 0.00 | 0.00 | 58 | 1020.6 |
| 20260504035132 | 20 | 199 | 4.8 | 8.0 | 0.00 | 0.00 | 0.00 | 57 | 1020.6 |
| 20260504034630 | 20 | 217 | 3.2 | 4.8 | 0.00 | 0.00 | 0.00 | 56 | 1020.6 |
| 20260504034126 | 20 | 221 | 4.8 | 8.0 | 0.00 | 0.00 | 0.00 | 56 | 1020.8 |
| 20260504033624 | 20 | 213 | 4.8 | 4.8 | 0.00 | 0.00 | 0.00 | 56 | 1020.7 |
| 20260504033121 | 20 | 205 | 0.0 | 1.6 | 0.00 | 0.00 | 0.00 | 56 | 1020.8 |
| 20260504032618 | 20 | 213 | 0.0 | 0.0 | 0.00 | 0.00 | 0.00 | 57 | 1020.7 |
| 20260504032115 | 20 | 211 | 0.0 | 0.0 | 0.00 | 0.00 | 0.00 | 57 | 1020.7 |
| 20260504031612 | 19 | 210 | 1.6 | 1.6 | 0.00 | 0.00 | 0.00 | 57 | 1020.5 |
| 20260504031108 | 19 | 210 | 1.6 | 1.6 | 0.00 | 0.00 | 0.00 | 57 | 1020.5 |
| 20260504030605 | 18 | 210 | 0.0 | 1.6 | 0.00 | 0.00 | 0.00 | 58 | 1020.7 |
| 20260504025559 | 19 | 210 | 0.0 | 0.0 | 0.00 | 0.00 | 0.00 | 57 | 1020.7 |
| 20260504025055 | 19 | 210 | 0.0 | 0.0 | 0.00 | 0.00 | 0.00 | 57 | 1020.6 |
| 20260504024553 | 20 | 210 | 0.0 | 0.0 | 0.00 | 0.00 | 0.00 | 57 | 1020.4 |
| 20260504024049 | 20 | 209 | 0.0 | 0.0 | 0.00 | 0.00 | 0.00 | 56 | 1020.5 |
| 20260504023546 | 20 | 209 | 0.0 | 0.0 | 0.00 | 0.00 | 0.00 | 56 | 1020.6 |
| 20260504023042 | 20 | 209 | 0.0 | 0.0 | 0.00 | 0.00 | 0.00 | 55 | 1020.6 |
| 20260504022538 | 20 | 209 | 0.0 | 0.0 | 0.00 | 0.00 | 0.00 | 56 | 1020.6 |
| 20260504022034 | 20 | 209 | 1.6 | 1.6 | 0.00 | 0.00 | 0.00 | 55 | 1020.5 |
| 20260504021532 | 20 | 208 | 1.6 | 1.6 | 0.00 | 0.00 | 0.00 | 56 | 1020.5 |
| 20260504021029 | 20 | 208 | 0.0 | 0.0 | 0.00 | 0.00 | 0.00 | 57 | 1020.3 |
| 20260504020526 | 20 | 209 | 0.0 | 0.0 | 0.00 | 0.00 | 0.00 | 56 | 1020.5 |
| 20260504020022 | 20 | 209 | 0.0 | 0.0 | 0.00 | 0.00 | 0.00 | 56 | 1020.3 |
| 20260504015519 | 20 | 208 | 0.0 | 0.0 | 0.00 | 0.00 | 0.00 | 56 | 1020.2 |
| 20260504015015 | 20 | 209 | 0.0 | 0.0 | 0.00 | 0.00 | 0.00 | 55 | 1020.3 |
| 20260504014511 | 20 | 208 | 0.0 | 0.0 | 0.00 | 0.00 | 0.00 | 55 | 1020.3 |
| 20260504014008 | 21 | 208 | 0.0 | 0.0 | 0.00 | 0.00 | 0.00 | 53 | 1020.1 |
| 20260504013506 | 21 | 208 | 0.0 | 0.0 | 0.00 | 0.00 | 0.00 | 52 | 1020.2 |
| 20260504013002 | 21 | 208 | 0.0 | 0.0 | 0.00 | 0.00 | 0.00 | 52 | 1019.8 |
| 20260504012500 | 21 | 208 | 0.0 | 0.0 | 0.00 | 0.00 | 0.00 | 51 | 1020.2 |
| 20260504011958 | 21 | 208 | 0.0 | 0.0 | 0.00 | 0.00 | 0.00 | 51 | 1019.9 |
| 20260504011454 | 22 | 208 | 0.0 | 1.6 | 0.00 | 0.00 | 0.00 | 50 | 1019.9 |
| 20260504010950 | 22 | 177 | 0.0 | 0.0 | 0.00 | 0.00 | 0.00 | 51 | 1019.8 |
| 20260504010446 | 22 | 177 | 0.0 | 1.6 | 0.00 | 0.00 | 0.00 | 49 | 1019.9 |
| 20260504005942 | 22 | 176 | 3.2 | 3.2 | 0.00 | 0.00 | 0.00 | 49 | 1019.9 |
| 20260504005439 | 22 | 210 | 1.6 | 1.6 | 0.00 | 0.00 | 0.00 | 48 | 1019.7 |
| 20260504004937 | 23 | 213 | 4.8 | 4.8 | 0.00 | 0.00 | 0.00 | 47 | 1019.8 |
| 20260504004434 | 23 | 186 | 8.0 | 9.7 | 0.00 | 0.00 | 0.00 | 46 | 1019.9 |
| 20260504003931 | 23 | 211 | 0.0 | 0.0 | 0.00 | 0.00 | 0.00 | 47 | 1019.9 |
| 20260504003427 | 23 | 201 | 3.2 | 3.2 | 0.00 | 0.00 | 0.00 | 46 | 1020.1 |
| 20260504002924 | 23 | 184 | 1.6 | 3.2 | 0.00 | 0.00 | 0.00 | 45 | 1019.8 |
| 20260504002421 | 23 | 214 | 4.8 | 8.0 | 0.00 | 0.00 | 0.00 | 45 | 1020.1 |
| 20260504001918 | 23 | 152 | 6.4 | 8.0 | 0.00 | 0.00 | 0.00 | 44 | 1020.0 |
| 20260504001416 | 23 | 197 | 1.6 | 3.2 | 0.00 | 0.00 | 0.00 | 44 | 1020.0 |
| 20260504000912 | 23 | 156 | 8.0 | 9.7 | 0.00 | 0.00 | 0.00 | 43 | 1020.0 |
| 20260504000409 | 23 | 203 | 1.6 | 1.6 | 0.00 | 0.00 | 0.00 | 45 | 1020.3 |
| 20260503235907 | 23 | 205 | 4.8 | 8.0 | 0.00 | 0.00 | 0.00 | 42 | 1020.1 |
| 20260503235405 | 23 | 171 | 8.0 | 11.3 | 0.00 | 0.00 | 0.00 | 42 | 1020.4 |
| 20260503234902 | 24 | 193 | 9.7 | 12.9 | 0.00 | 0.00 | 0.00 | 42 | 1020.4 |
| 20260503234359 | 24 | 160 | 8.0 | 11.3 | 0.00 | 0.00 | 0.00 | 41 | 1020.6 |
| 20260503233857 | 25 | 194 | 3.2 | 4.8 | 0.00 | 0.00 | 0.00 | 41 | 1020.6 |
| 20260503233353 | 25 | 142 | 9.7 | 11.3 | 0.00 | 0.00 | 0.00 | 40 | 1020.7 |
| 20260503232849 | 25 | 175 | 8.0 | 11.3 | 0.00 | 0.00 | 0.00 | 41 | 1020.3 |
| 20260503232347 | 25 | 150 | 6.4 | 8.0 | 0.00 | 0.00 | 0.00 | 41 | 1020.6 |
| 20260503231845 | 25 | 127 | 8.0 | 9.7 | 0.00 | 0.00 | 0.00 | 40 | 1020.3 |
| 20260503231341 | 25 | 209 | 3.2 | 3.2 | 0.00 | 0.00 | 0.00 | 41 | 1020.5 |
| 20260503230838 | 25 | 131 | 8.0 | 11.3 | 0.00 | 0.00 | 0.00 | 40 | 1020.6 |
| 20260503230335 | 25 | 209 | 3.2 | 3.2 | 0.00 | 0.00 | 0.00 | 41 | 1020.2 |
| 20260503225833 | 25 | 220 | 9.7 | 12.9 | 0.00 | 0.00 | 0.00 | 39 | 1020.2 |
| 20260503225328 | 25 | 177 | 9.7 | 11.3 | 0.00 | 0.00 | 0.00 | 40 | 1020.4 |
| 20260503224825 | 25 | 209 | 3.2 | 3.2 | 0.00 | 0.00 | 0.00 | 40 | 1020.5 |
| 20260503224322 | 25 | 169 | 4.8 | 4.8 | 0.00 | 0.00 | 0.00 | 41 | 1020.4 |
| 20260503223820 | 25 | 167 | 8.0 | 11.3 | 0.00 | 0.00 | 0.00 | 40 | 1020.6 |
| 20260503223317 | 25 | 218 | 3.2 | 4.8 | 0.00 | 0.00 | 0.00 | 40 | 1020.6 |
| 20260503222812 | 25 | 215 | 4.8 | 4.8 | 0.00 | 0.00 | 0.00 | 39 | 1020.6 |
| 20260503222311 | 26 | 129 | 0.0 | 1.6 | 0.00 | 0.00 | 0.00 | 37 | 1020.6 |
| 20260503221809 | 26 | 178 | 1.6 | 3.2 | 0.00 | 0.00 | 0.00 | 38 | 1021.0 |
| 20260503221307 | 26 | 197 | 4.8 | 8.0 | 0.00 | 0.00 | 0.00 | 37 | 1020.9 |
| 20260503220803 | 26 | 189 | 4.8 | 4.8 | 0.00 | 0.00 | 0.00 | 36 | 1020.9 |
| 20260503220300 | 26 | 157 | 6.4 | 11.3 | 0.00 | 0.00 | 0.00 | 38 | 1021.0 |
| 20260503215757 | 26 | 211 | 3.2 | 3.2 | 0.00 | 0.00 | 0.00 | 37 | 1021.2 |
| 20260503215254 | 26 | 220 | 8.0 | 11.3 | 0.00 | 0.00 | 0.00 | 36 | 1021.2 |
| 20260503214752 | 26 | 184 | 8.0 | 11.3 | 0.00 | 0.00 | 0.00 | 35 | 1021.5 |
| 20260503214248 | 26 | 212 | 0.0 | 1.6 | 0.00 | 0.00 | 0.00 | 37 | 1021.4 |
| 20260503213746 | 26 | 108 | 6.4 | 9.7 | 0.00 | 0.00 | 0.00 | 35 | 1021.4 |
| 20260503213243 | 26 | 122 | 8.0 | 9.7 | 0.00 | 0.00 | 0.00 | 36 | 1021.6 |
| 20260503212740 | 26 | 136 | 8.0 | 11.3 | 0.00 | 0.00 | 0.00 | 38 | 1021.7 |
| 20260503212238 | 26 | 127 | 17.7 | 20.9 | 0.00 | 0.00 | 0.00 | 35 | 1021.8 |
| 20260503211735 | 26 | 156 | 9.7 | 12.9 | 0.00 | 0.00 | 0.00 | 34 | 1021.9 |
| 20260503211231 | 26 | 171 | 8.0 | 9.7 | 0.00 | 0.00 | 0.00 | 34 | 1022.0 |
| 20260503210727 | 26 | 161 | 1.6 | 3.2 | 0.00 | 0.00 | 0.00 | 38 | 1022.2 |
| 20260503210225 | 26 | 188 | 9.7 | 12.9 | 0.00 | 0.00 | 0.00 | 35 | 1022.3 |
| 20260503205720 | 26 | 120 | 9.7 | 16.1 | 0.00 | 0.00 | 0.00 | 36 | 1022.4 |
| 20260503205216 | 26 | 193 | 1.6 | 3.2 | 0.00 | 0.00 | 0.00 | 37 | 1022.5 |
| 20260503204713 | 26 | 176 | 4.8 | 8.0 | 0.00 | 0.00 | 0.00 | 36 | 1022.3 |
| 20260503204211 | 27 | 180 | 8.0 | 14.5 | 0.00 | 0.00 | 0.00 | 34 | 1022.7 |
| 20260503203708 | 27 | 203 | 4.8 | 8.0 | 0.00 | 0.00 | 0.00 | 37 | 1022.6 |
| 20260503203205 | 26 | 146 | 9.7 | 11.3 | 0.00 | 0.00 | 0.00 | 35 | 1022.9 |
| 20260503202702 | 26 | 140 | 9.7 | 14.5 | 0.00 | 0.00 | 0.00 | 36 | 1022.8 |
| 20260503202200 | 26 | 197 | 9.7 | 12.9 | 0.00 | 0.00 | 0.00 | 35 | 1022.9 |
| 20260503201658 | 26 | 212 | 8.0 | 11.3 | 0.00 | 0.00 | 0.00 | 36 | 1023.3 |
| 20260503201155 | 26 | 196 | 3.2 | 3.2 | 0.00 | 0.00 | 0.00 | 38 | 1023.1 |
| 20260503200651 | 26 | 169 | 4.8 | 4.8 | 0.00 | 0.00 | 0.00 | 37 | 1023.1 |
| 20260503200148 | 26 | 155 | 9.7 | 12.9 | 0.00 | 0.00 | 0.00 | 37 | 1023.3 |
| 20260503195644 | 26 | 191 | 6.4 | 8.0 | 0.00 | 0.00 | 0.00 | 34 | 1023.2 |
| 20260503195142 | 26 | 183 | 11.3 | 12.9 | 0.00 | 0.00 | 0.00 | 37 | 1023.3 |
| 20260503194638 | 26 | 209 | 3.2 | 4.8 | 0.00 | 0.00 | 0.00 | 36 | 1023.5 |
| 20260503194134 | 26 | 210 | 8.0 | 11.3 | 0.00 | 0.00 | 0.00 | 37 | 1023.6 |
| 20260503193631 | 26 | 233 | 4.8 | 8.0 | 0.00 | 0.00 | 0.00 | 37 | 1023.7 |
| 20260503193126 | 26 | 156 | 6.4 | 11.3 | 0.00 | 0.00 | 0.00 | 37 | 1023.5 |
| 20260503192622 | 26 | 196 | 4.8 | 4.8 | 0.00 | 0.00 | 0.00 | 40 | 1023.6 |
| 20260503192118 | 26 | 215 | 9.7 | 12.9 | 0.00 | 0.00 | 0.00 | 36 | 1023.6 |
| 20260503191615 | 26 | 196 | 4.8 | 4.8 | 0.00 | 0.00 | 0.00 | 36 | 1023.5 |
| 20260503191112 | 26 | 221 | 1.6 | 1.6 | 0.00 | 0.00 | 0.00 | 37 | 1023.7 |
| 20260503190609 | 26 | 172 | 8.0 | 9.7 | 0.00 | 0.00 | 0.00 | 38 | 1023.6 |
| 20260503190106 | 27 | 181 | 6.4 | 8.0 | 0.00 | 0.00 | 0.00 | 34 | 1023.9 |
| 20260503185603 | 26 | 212 | 6.4 | 11.3 | 0.00 | 0.00 | 0.00 | 35 | 1024.2 |
| 20260503185102 | 26 | 218 | 0.0 | 0.0 | 0.00 | 0.00 | 0.00 | 37 | 1024.0 |
| 20260503184558 | 26 | 158 | 11.3 | 12.9 | 0.00 | 0.00 | 0.00 | 35 | 1024.3 |
| 20260503184055 | 26 | 176 | 6.4 | 8.0 | 0.00 | 0.00 | 0.00 | 34 | 1024.1 |
| 20260503183551 | 26 | 227 | 4.8 | 4.8 | 0.00 | 0.00 | 0.00 | 35 | 1024.5 |
| 20260503183049 | 26 | 228 | 3.2 | 4.8 | 0.00 | 0.00 | 0.00 | 38 | 1024.3 |
| 20260503182547 | 26 | 198 | 6.4 | 8.0 | 0.00 | 0.00 | 0.00 | 35 | 1024.7 |
| 20260503182045 | 26 | 197 | 4.8 | 8.0 | 0.00 | 0.00 | 0.00 | 35 | 1024.5 |
| 20260503181541 | 26 | 176 | 0.0 | 0.0 | 0.00 | 0.00 | 0.00 | 41 | 1024.8 |
| 20260503181038 | 26 | 185 | 9.7 | 11.3 | 0.00 | 0.00 | 0.00 | 37 | 1024.8 |
| 20260503180535 | 26 | 130 | 8.0 | 11.3 | 0.00 | 0.00 | 0.00 | 35 | 1025.0 |
| 20260503180032 | 26 | 209 | 0.0 | 1.6 | 0.00 | 0.00 | 0.00 | 40 | 1024.9 |
| 20260503175530 | 26 | 170 | 4.8 | 8.0 | 0.00 | 0.00 | 0.00 | 41 | 1025.2 |
| 20260503175027 | 26 | 177 | 4.8 | 11.3 | 0.00 | 0.00 | 0.00 | 42 | 1025.3 |
| 20260503174524 | 26 | 196 | 8.0 | 11.3 | 0.00 | 0.00 | 0.00 | 40 | 1025.5 |
| 20260503174020 | 26 | 224 | 1.6 | 3.2 | 0.00 | 0.00 | 0.00 | 39 | 1025.4 |
| 20260503173515 | 25 | 219 | 8.0 | 12.9 | 0.00 | 0.00 | 0.00 | 41 | 1025.8 |
| 20260503173012 | 25 | 164 | 9.7 | 14.5 | 0.00 | 0.00 | 0.00 | 44 | 1025.4 |
| 20260503172510 | 26 | 214 | 6.4 | 11.3 | 0.00 | 0.00 | 0.00 | 38 | 1025.2 |
| 20260503172006 | 25 | 225 | 4.8 | 8.0 | 0.00 | 0.00 | 0.00 | 42 | 1025.9 |
| 20260503171503 | 25 | 209 | 1.6 | 3.2 | 0.00 | 0.00 | 0.00 | 46 | 1025.6 |
| 20260503171000 | 25 | 191 | 9.7 | 11.3 | 0.00 | 0.00 | 0.00 | 42 | 1025.9 |
| 20260503170456 | 26 | 194 | 8.0 | 9.7 | 0.00 | 0.00 | 0.00 | 41 | 1026.0 |
| 20260503150849 | 21 | 205 | 0.0 | 0.0 | 0.00 | 0.00 | 0.00 | 65 | 1026.6 |
| 20260503150345 | 21 | 248 | 0.0 | 1.6 | 0.00 | 0.00 | 0.00 | 63 | 1026.8 |
| 20260503140309 | 18 | 239 | 1.6 | 1.6 | 0.00 | 0.00 | 0.00 | 71 | 1026.4 |
| 20260503131239 | 12 | 221 | 0.0 | 0.0 | 0.00 | 0.00 | 0.00 | 99 | 1026.5 |
| 20260503130736 | 12 | 240 | 0.0 | 0.0 | 0.00 | 0.00 | 0.00 | 99 | 1026.3 |
| 20260503130233 | 12 | 239 | 0.0 | 0.0 | 0.00 | 0.00 | 0.00 | 99 | 1026.4 |
| 20260503120159 | 10 | 205 | 0.0 | 0.0 | 0.00 | 0.00 | 0.00 | 99 | 1025.6 |
| 20260503110627 | 11 | 205 | 0.0 | 0.0 | 0.00 | 0.00 | 0.00 | 99 | 1025.1 |
| 20260503110124 | 11 | 205 | 0.0 | 0.0 | 0.00 | 0.00 | 0.00 | 99 | 1025.4 |